Weather reports worldwide

Advertisment
Palma De Mallorca/Son San Ju, Spain (8306): temperature & dewpoint: 17.09.2020 08:00:00 - 23.09.2020 08:00:00 (CEST)Palma De Mallorca/Son San Ju, Spain (8306): wind speed: 17.09.2020 08:00:00 - 23.09.2020 08:00:00 (CEST)Palma De Mallorca/Son San Ju, Spain (8306): wind direction: 17.09.2020 08:00:00 - 23.09.2020 08:00:00 (CEST)Palma De Mallorca/Son San Ju, Spain (8306): reduced air pressure: 17.09.2020 08:00:00 - 23.09.2020 08:00:00 (CEST)Palma De Mallorca/Son San Ju, Spain (8306): visibility: 17.09.2020 08:00:00 - 23.09.2020 08:00:00 (CEST)
Date & Time tt [°C] td [°C] ff [km/h] ff [kn] dd ppp [hPa] vv [km]
23.09.2020 08:00:00 - - - - - - -
23.09.2020 07:00:00 20,7 19,2 11 6 WSW 1012,2 10
23.09.2020 06:00:00 20,5 19,0 5 3 NE 1012,4 10
23.09.2020 05:00:00 20,1 18,8 2 1 NE 1012,4 10
23.09.2020 04:00:00 20,9 19,2 2 1 - 1012,9 10
23.09.2020 03:00:00 21,3 19,6 8 4 NNE 1013,3 15
23.09.2020 02:00:00 21,3 19,4 2 1 - 1013,3 10
23.09.2020 01:00:00 23,7 19,8 4 2 - 1013,8 10
23.09.2020 00:00:00 24,2 19,5 8 4 S 1013,9 10
22.09.2020 23:00:00 24,3 20,2 9 5 SW 1013,9 10
22.09.2020 22:00:00 24,7 20,6 18 10 SW 1013,7 10
22.09.2020 21:00:00 25,0 20,9 18 10 SSW 1013,2 10
22.09.2020 20:00:00 24,9 20,6 16 9 SW 1012,9 30
22.09.2020 19:00:00 25,5 20,3 13 7 SW 1012,9 10
22.09.2020 18:00:00 25,9 19,9 18 10 SW 1013,1 10
22.09.2020 17:00:00 26,7 19,2 18 10 SW 1013,4 30
22.09.2020 16:00:00 26,9 19,1 21 11 WSW 1013,8 10
22.09.2020 15:00:00 27,0 19,6 18 10 SW 1014,6 10
22.09.2020 14:00:00 25,7 18,7 16 9 WSW 1014,9 10
22.09.2020 13:00:00 27,0 19,2 15 8 SW 1015,2 10
22.09.2020 12:00:00 26,2 18,8 13 7 SW 1015,5 10
22.09.2020 11:00:00 26,4 16,7 11 6 SSW 1015,4 10
22.09.2020 10:00:00 23,5 17,7 0 0 N 1015,2 10
22.09.2020 09:00:00 19,9 17,3 0 0 N 1014,8 10
22.09.2020 08:00:00 17,3 16,7 2 1 - 1014,6 10
22.09.2020 07:00:00 18,0 17,0 8 4 ENE - 10
22.09.2020 06:00:00 19,0 18,0 4 2 - - 10
22.09.2020 05:00:00 19,0 18,0 2 1 - - 10
22.09.2020 04:00:00 19,0 17,0 5 3 ENE - 10
22.09.2020 03:00:00 20,0 17,0 0 0 N - 10
22.09.2020 02:00:00 20,0 18,0 2 1 - - 15
22.09.2020 01:00:00 21,0 19,0 4 2 - - 10
22.09.2020 00:00:00 21,0 18,0 8 4 ENE - 10
21.09.2020 23:00:00 23,0 19,0 4 2 - - 10
21.09.2020 22:00:00 23,5 19,0 4 2 NNW 1015,8 10
21.09.2020 21:00:00 24,3 18,5 8 4 WSW 1015,3 10
21.09.2020 20:00:00 25,2 18,5 11 6 WSW 1015,1 28
21.09.2020 19:00:00 26,2 18,3 15 8 SW 1014,7 10
21.09.2020 18:00:00 26,8 18,4 16 9 SW 1014,8 10
21.09.2020 17:00:00 27,3 18,9 18 10 SW 1014,9 30
21.09.2020 16:00:00 28,0 19,2 13 7 SW 1015,7 10
21.09.2020 15:00:00 27,9 19,7 16 9 SW 1015,4 10
21.09.2020 14:00:00 28,0 20,2 21 11 SW 1015,5 10
21.09.2020 13:00:00 27,3 19,7 16 9 SW 1016,5 10
21.09.2020 12:00:00 26,8 20,2 13 7 SW 1016,5 10
21.09.2020 11:00:00 26,0 19,5 4 2 ESE 1016,4 30
21.09.2020 10:00:00 23,6 18,0 4 2 - 1016,2 10
21.09.2020 09:00:00 20,5 16,3 4 2 - 1016,1 10
21.09.2020 08:00:00 17,8 15,3 5 3 ENE 1015,9 30
21.09.2020 07:00:00 17,6 15,2 4 2 N 1015,6 10
21.09.2020 06:00:00 18,1 15,2 8 4 N 1015,7 10
21.09.2020 05:00:00 18,2 15,8 4 2 NE 1015,8 25
21.09.2020 04:00:00 18,5 15,9 5 3 NE 1016,0 10
21.09.2020 03:00:00 18,6 15,8 5 3 NE 1016,5 10
21.09.2020 02:00:00 19,3 16,1 0 0 N 1016,4 10
21.09.2020 01:00:00 19,4 16,2 5 3 E 1016,5 10
21.09.2020 00:00:00 20,1 16,5 4 2 - 1016,5 10
20.09.2020 23:00:00 20,9 16,7 4 2 - 1016,4 10
20.09.2020 22:00:00 23,0 17,2 9 5 W 1016,2 10
20.09.2020 21:00:00 24,1 17,3 13 7 W 1015,8 10
20.09.2020 20:00:00 24,7 17,2 15 8 WSW 1015,3 10
20.09.2020 19:00:00 25,9 16,7 16 9 WSW 1015,3 10
20.09.2020 18:00:00 26,7 17,7 22 12 WSW 1015,1 10
20.09.2020 17:00:00 27,1 17,4 29 16 SW 1015,1 30
20.09.2020 16:00:00 27,3 18,5 26 14 WSW 1015,3 10
20.09.2020 15:00:00 27,9 17,3 26 14 SW 1015,6 30
20.09.2020 14:00:00 28,2 16,2 22 12 SW 1015,9 10
20.09.2020 13:00:00 28,7 15,5 18 10 SSW 1015,9 10
20.09.2020 12:00:00 28,2 14,9 13 7 SW 1016,2 10
20.09.2020 11:00:00 28,0 14,9 8 4 SW 1016,0 30
20.09.2020 10:00:00 26,3 17,3 8 4 NNW 1015,8 10
20.09.2020 09:00:00 23,5 17,7 0 0 N 1015,6 10
20.09.2020 08:00:00 22,8 17,7 11 6 W 1015,3 30
20.09.2020 07:00:00 21,8 17,2 15 8 W 1015,0 10
20.09.2020 06:00:00 23,1 18,6 16 9 W 1014,6 10
20.09.2020 05:00:00 21,4 18,0 4 2 WSW 1014,5 25
20.09.2020 04:00:00 20,1 18,2 4 2 SW 1014,5 10
20.09.2020 03:00:00 20,3 18,0 5 3 NE 1015,2 10
20.09.2020 02:00:00 21,3 18,2 2 1 NE 1015,6 10
20.09.2020 01:00:00 23,4 18,9 15 8 WSW 1015,7 10
20.09.2020 00:00:00 24,6 19,2 13 7 WSW 1015,8 10
19.09.2020 23:00:00 24,7 19,1 15 8 WSW 1015,6 10
19.09.2020 22:00:00 24,7 19,5 16 9 SW 1015,3 10
19.09.2020 21:00:00 24,9 19,5 22 12 WSW 1014,5 10
19.09.2020 20:00:00 25,0 17,0 18 10 W 1014,2 10
19.09.2020 19:00:00 26,1 17,2 22 12 WSW 1014,1 10
19.09.2020 18:00:00 26,7 17,3 26 14 WSW 1014,0 10
19.09.2020 17:00:00 27,9 16,1 24 13 WSW 1013,9 10
19.09.2020 16:00:00 28,3 17,1 31 17 WSW 1013,9 10
19.09.2020 15:00:00 29,1 19,1 29 16 WSW 1014,1 10
19.09.2020 14:00:00 28,9 19,9 34 18 WSW 1014,5 28
19.09.2020 13:00:00 29,0 21,1 28 15 WSW 1014,9 10
19.09.2020 12:00:00 28,6 20,6 18 10 WSW 1014,8 9
19.09.2020 11:00:00 27,7 22,0 11 6 W 1014,6 9
19.09.2020 10:00:00 25,9 21,6 5 3 NNE 1014,4 9
19.09.2020 09:00:00 21,9 19,5 8 4 NE 1014,2 9
19.09.2020 08:00:00 21,0 - 5 3 NE 1014,3 10
19.09.2020 07:00:00 22,0 - 5 3 NNE - 10
19.09.2020 06:00:00 22,0 - 5 3 NNE - 10
19.09.2020 05:00:00 22,2 - 9 5 ENE 1014,5 10
19.09.2020 04:00:00 23,0 - 9 5 E - 10
19.09.2020 03:00:00 23,0 - 16 9 ENE - 10
19.09.2020 02:00:00 22,5 - 2 1 - 1017,3 10
19.09.2020 01:00:00 23,0 - 2 1 E - 10
19.09.2020 00:00:00 23,1 20,8 5 3 N 1017,1 10
18.09.2020 23:00:00 23,0 20,5 5 3 N 1016,4 10
18.09.2020 22:00:00 23,2 20,4 8 4 NNE 1015,8 10
18.09.2020 21:00:00 23,6 20,5 8 4 ENE 1015,2 10
18.09.2020 20:00:00 25,2 21,5 13 7 ESE 1015,3 20
18.09.2020 19:00:00 26,5 21,5 18 10 SSW 1017,2 10
18.09.2020 18:00:00 27,5 21,5 13 7 W 1016,5 10
18.09.2020 17:00:00 27,4 21,9 4 2 NNW 1016,5 25
18.09.2020 16:00:00 27,3 21,3 13 7 WSW 1017,1 10
18.09.2020 15:00:00 27,8 20,6 4 2 - 1016,7 10
18.09.2020 14:00:00 27,5 21,4 11 6 WSW 1017,4 10
18.09.2020 13:00:00 27,5 20,7 2 1 - 1017,9 10
18.09.2020 12:00:00 27,7 20,5 2 1 WNW 1018,0 10
18.09.2020 11:00:00 26,4 19,8 2 1 - 1017,9 10
18.09.2020 10:00:00 23,7 17,3 4 2 - 1017,1 10
18.09.2020 09:00:00 20,8 17,0 8 4 NNE 1016,7 10
18.09.2020 08:00:00 19,2 17,0 4 2 ENE 1016,0 18
18.09.2020 07:00:00 19,4 17,2 0 0 N 1015,8 10
18.09.2020 06:00:00 18,8 16,4 8 4 ENE 1015,6 10
18.09.2020 05:00:00 18,8 16,0 0 0 N 1015,6 15
18.09.2020 04:00:00 18,8 16,2 8 4 ENE 1015,5 10
18.09.2020 03:00:00 19,3 16,0 8 4 ENE 1015,9 10
18.09.2020 02:00:00 19,6 17,0 5 3 NE 1016,1 10
18.09.2020 01:00:00 20,4 16,6 4 2 NNE 1016,3 10
18.09.2020 00:00:00 20,8 17,4 5 3 NE 1016,6 10
17.09.2020 23:00:00 22,0 17,8 8 4 NE 1016,7 10
17.09.2020 22:00:00 23,2 18,2 8 4 ENE 1016,6 10
17.09.2020 21:00:00 24,7 19,2 0 0 N 1016,1 10
17.09.2020 20:00:00 26,2 18,6 11 6 SW 1016,0 20
17.09.2020 19:00:00 26,6 18,2 11 6 WSW 1015,8 10
17.09.2020 18:00:00 27,4 17,0 9 5 SW 1015,7 10
17.09.2020 17:00:00 27,9 14,6 11 6 SW 1016,0 10
17.09.2020 16:00:00 28,8 14,6 16 9 SW 1016,1 10
17.09.2020 15:00:00 29,6 15,1 15 8 SW 1016,5 10
17.09.2020 14:00:00 29,0 15,8 11 6 SW 1016,7 30
17.09.2020 13:00:00 28,3 18,3 11 6 WSW 1017,1 10
17.09.2020 12:00:00 28,1 16,0 11 6 SW 1017,6 10
17.09.2020 11:00:00 27,4 15,4 2 1 SSE 1017,7 10
17.09.2020 10:00:00 24,6 17,6 0 0 N 1017,2 10
17.09.2020 09:00:00 19,7 17,7 0 0 N 1017,0 10
17.09.2020 08:00:00 17,5 16,7 5 3 ENE 1017,0 10

tt = temperature
td = dewpoint
ff = wind speed
dd = wind direction
ppp = reduced air pressure
vv = visibility

Next stations